Ardabil, Iran

6:10 PM +0430 on April 28, 2017 (GMT +0430)
Ardabil

Weather History for OITL - April, 2013

Change the Weather History Date:

Tuesday, April 9, 2013

  Actual Average Record
Temperature  
Mean Temperature 60 °F -  
Max Temperature 80 °F - - ()
Min Temperature 39 °F - - ()
Degree Days  
Heating Degree Days 6    
Growing Degree Days 10 (Base 50)    
Moisture  
Dew Point 31 °F    
Average Humidity 31    
Maximum Humidity 70    
Minimum Humidity 13    
Precipitation  
Precipitation 0.00 in - - ()
Sea Level Pressure  
Sea Level Pressure 29.77 in    
Wind  
Wind Speed 17 mph ()    
Max Wind Speed 36 mph    
Max Gust Speed 33 mph    
Visibility 6.2 miles    
Events      
T = Trace of Precipitation, MM = Missing Value Source: Averaged Metar Reports

Daily Weather History Graph

Daily Weather History Graph

Search for Another Location

Airport or City:

Trip Planner

Search our weather history database for the weather conditions in past years. The results will help you decide how hot, cold, wet, or windy it might be!

Date:

Astronomy

Apr. 09, 2013 Rise Set
Actual Time 6:49 AM +0430 7:46 PM +0430
Civil Twilight 6:22 AM +0430 8:14 PM +0430
Nautical Twilight 5:50 AM +0430 8:46 PM +0430
Astronomical Twilight 5:17 AM +0430 9:19 PM +0430
Moon 5:58 AM +0430 (4/9) 6:59 PM +0430 (4/9)
Length of Visible Light 13h 51m
Length of Day
12h 57m
Waning Crescent, 1% of the Moon is Illuminated
Apr 9
Waning Crescent
Apr 10
New
Apr 18
First Quarter
Apr 26
Full
May 2
Last Quarter

Hourly Weather History & Observations

Time (+0430) Temp. Windchill Dew Point Humidity Pressure Visibility Wind Dir Wind Speed Gust Speed Precip Events Conditions
5:20 AM 48.2 °F - 30.2 °F 50% 29.80 in - South 16.1 mph - N/A   Clear
5:30 AM 48.2 °F - 30.2 °F 50% 29.80 in - South 16.1 mph - N/A   Clear
6:20 AM 42.8 °F 38.6 °F 28.4 °F 57% 29.80 in - WNW 6.9 mph - N/A   Clear
6:30 AM 42.8 °F 38.6 °F 28.4 °F 57% 29.80 in - WNW 6.9 mph - N/A   Clear
7:00 AM 39.2 °F 34.2 °F 28.4 °F 65% 29.80 in - West 6.9 mph - N/A   Clear
7:20 AM 39.2 °F 34.2 °F 30.2 °F 70% 29.83 in - SW 6.9 mph - N/A   Clear
7:30 AM 39.2 °F 34.2 °F 30.2 °F 70% 29.83 in - SW 6.9 mph - N/A   Clear
8:00 AM 42.8 °F 34.5 °F 28.4 °F 57% 29.83 in - SW 18.4 mph - N/A   Clear
8:20 AM 55.4 °F - 33.8 °F 44% 29.83 in - West 9.2 mph - N/A   Clear
8:30 AM 55.4 °F - 33.8 °F 44% 29.83 in - West 9.2 mph - N/A   Clear
9:20 AM 68.0 °F - 35.6 °F 30% 29.83 in - South 26.5 mph - N/A   Clear
9:30 AM 68.0 °F - 35.6 °F 30% 29.83 in - South 26.5 mph - N/A   Clear
10:20 AM 71.6 °F - 37.4 °F 29% 29.80 in - South 28.8 mph - N/A   Clear
10:30 AM 71.6 °F - 37.4 °F 29% 29.80 in - South 28.8 mph - N/A   Clear
11:20 AM 73.4 °F - 35.6 °F 25% 29.80 in - SSW 26.5 mph - N/A   Clear
11:30 AM 73.4 °F - 35.6 °F 25% 29.80 in - SSW 26.5 mph - N/A   Clear
12:20 PM 75.2 °F - 32.0 °F 21% 29.77 in - SW 28.8 mph - N/A   Clear
12:30 PM 75.2 °F - 32.0 °F 21% 29.77 in - SW 28.8 mph - N/A   Clear
1:20 PM 77.0 °F - 35.6 °F 22% 29.74 in - SSW 35.7 mph - N/A   Clear
1:30 PM 77.0 °F - 35.6 °F 22% 29.74 in - SSW 35.7 mph - N/A   Clear
2:20 PM 78.8 °F - 30.2 °F 17% 29.74 in - SW 20.7 mph 33.4 mph N/A   Clear
2:30 PM 78.8 °F - 30.2 °F 17% 29.74 in - SW 20.7 mph 33.4 mph N/A   Clear
3:30 PM 78.8 °F - 28.4 °F 16% 29.74 in 6.2 mi SW 16.1 mph 31.1 mph N/A   Mostly Cloudy
4:00 PM 78.8 °F - 26.6 °F 15% 29.74 in 6.2 mi SW 24.2 mph - N/A   Mostly Cloudy
4:20 PM 80.6 °F - 32.0 °F 17% 29.71 in 6.2 mi SW 31.1 mph - N/A   Mostly Cloudy
4:30 PM 80.6 °F - 32.0 °F 17% 29.71 in 6.2 mi SW 31.1 mph - N/A   Mostly Cloudy
5:00 PM 80.6 °F - 24.8 °F 13% 29.71 in 6.2 mi SW 26.5 mph - N/A   Mostly Cloudy
5:20 PM 78.8 °F - 26.6 °F 15% 29.71 in 6.2 mi WSW 24.2 mph - N/A   Mostly Cloudy
5:30 PM 78.8 °F - 26.6 °F 15% 29.71 in 6.2 mi WSW 24.2 mph - N/A   Mostly Cloudy
6:20 PM 75.2 °F - 26.6 °F 17% 29.71 in 6.2 mi SW 24.2 mph - N/A   Mostly Cloudy
6:30 PM 75.2 °F - 26.6 °F 17% 29.71 in 6.2 mi SW 24.2 mph - N/A   Mostly Cloudy
7:20 PM 73.4 °F - 32.0 °F 22% 29.74 in 6.2 mi SSW 18.4 mph - N/A   Mostly Cloudy
7:30 PM 73.4 °F - 32.0 °F 22% 29.74 in 6.2 mi SSW 18.4 mph - N/A   Mostly Cloudy